Retour au catalogue

SPARK 1

ActifScienceSSO
NORAD 41900·PAYLOAD·🇨🇳 China

Lancé Dec 21, 2016 depuis Jiuquan Satellite Launch Center

Loading…

Prochains Passages (prochaines 24 heures)

TLE

FraisSource: Space-Track

Époque: Sep 14, 2026, 10:54 UTC

1 41900U 16081C   26257.45435308  .00000375  00000-0  88665-4 0  9996
2 41900  98.5560 254.7088 0024598  46.7844 313.5403 14.59864911517295

Suivez SPARK 1 en temps réel avec AllMySat

Download on the App Store